TimeEDT,TemperatureF,Dew PointF,Humidity,Sea Level PressureIn,VisibilityMPH,Wind Direction,Wind SpeedMPH,Gust SpeedMPH,PrecipitationIn,Events,Conditions,WindDirDegrees,DateUTC
12:15 AM,23.4,7.3,50,30.16,10.0,Calm,Calm,-,N/A,,Clear,0,2014-03-14 04:15:00
12:35 AM,23.4,7.2,50,30.16,10.0,Calm,Calm,-,N/A,,Clear,0,2014-03-14 04:35:00
12:55 AM,23.0,8.1,53,30.15,10.0,Calm,Calm,-,N/A,,Clear,0,2014-03-14 04:55:00
1:15 AM,22.5,9.1,57,30.16,10.0,Calm,Calm,-,N/A,,Clear,0,2014-03-14 05:15:00
1:35 AM,22.5,9.0,56,30.16,10.0,SSE,3.5,-,N/A,,Clear,160,2014-03-14 05:35:00
1:55 AM,23.0,9.7,57,30.16,10.0,Calm,Calm,-,N/A,,Clear,0,2014-03-14 05:55:00
2:15 AM,24.6,9.1,52,30.16,10.0,SSE,4.6,-,N/A,,Scattered Clouds,160,2014-03-14 06:15:00
2:35 AM,25.5,9.9,52,30.16,10.0,South,4.6,-,N/A,,Overcast,170,2014-03-14 06:35:00
2:55 AM,25.5,10.9,54,30.16,10.0,SSE,4.6,-,N/A,,Overcast,160,2014-03-14 06:55:00
3:15 AM,27.0,11.3,52,30.15,10.0,SSE,4.6,-,N/A,,Overcast,160,2014-03-14 07:15:00
3:35 AM,27.7,10.8,49,30.15,10.0,South,5.8,-,N/A,,Overcast,180,2014-03-14 07:35:00
3:55 AM,28.4,9.5,45,30.16,10.0,South,6.9,-,N/A,,Mostly Cloudy,180,2014-03-14 07:55:00
4:15 AM,28.0,9.7,46,30.16,10.0,South,5.8,-,N/A,,Mostly Cloudy,170,2014-03-14 08:15:00
4:35 AM,28.2,9.5,45,30.16,10.0,South,5.8,-,N/A,,Scattered Clouds,180,2014-03-14 08:35:00
4:55 AM,28.4,9.3,45,30.18,10.0,South,4.6,-,N/A,,Clear,170,2014-03-14 08:55:00
5:15 AM,28.4,9.3,45,30.18,10.0,SSE,4.6,-,N/A,,Clear,160,2014-03-14 09:15:00
5:35 AM,29.3,9.7,44,30.19,10.0,South,3.5,-,N/A,,Mostly Cloudy,170,2014-03-14 09:35:00
5:55 AM,29.7,10.2,44,30.19,10.0,SSE,3.5,-,N/A,,Overcast,150,2014-03-14 09:55:00
6:15 AM,30.2,10.8,44,30.19,10.0,SSE,3.5,-,N/A,,Overcast,160,2014-03-14 10:15:00
6:35 AM,30.4,10.2,43,30.20,10.0,Calm,Calm,-,N/A,,Overcast,0,2014-03-14 10:35:00
6:55 AM,30.9,10.4,42,30.20,10.0,Calm,Calm,-,N/A,,Overcast,0,2014-03-14 10:55:00
7:15 AM,30.9,10.6,43,30.20,10.0,Calm,Calm,-,N/A,,Overcast,0,2014-03-14 11:15:00
7:35 AM,31.6,10.0,41,30.19,10.0,Calm,Calm,-,N/A,,Overcast,0,2014-03-14 11:35:00
7:55 AM,31.8,9.7,40,30.20,10.0,Calm,Calm,-,N/A,,Overcast,0,2014-03-14 11:55:00
8:15 AM,32.4,9.0,38,30.19,10.0,South,3.5,-,N/A,,Overcast,170,2014-03-14 12:15:00
8:35 AM,32.7,8.2,36,30.20,10.0,South,4.6,-,N/A,,Scattered Clouds,170,2014-03-14 12:35:00
8:55 AM,35.4,7.7,32,30.20,10.0,SSE,5.8,-,N/A,,Clear,150,2014-03-14 12:55:00
9:15 AM,37.4,5.9,27,30.20,10.0,South,8.1,-,N/A,,Clear,190,2014-03-14 13:15:00
9:35 AM,38.8,6.3,26,30.20,10.0,South,5.8,-,N/A,,Clear,180,2014-03-14 13:35:00
9:55 AM,40.3,6.4,25,30.20,10.0,South,6.9,-,N/A,,Clear,180,2014-03-14 13:55:00
10:15 AM,42.4,6.3,23,30.19,10.0,South,6.9,-,N/A,,Clear,190,2014-03-14 14:15:00
10:35 AM,45.0,7.7,22,30.18,10.0,SW,10.4,-,N/A,,Clear,220,2014-03-14 14:35:00
10:55 AM,46.2,8.6,22,30.17,10.0,SSW,11.5,-,N/A,,Clear,210,2014-03-14 14:55:00
11:15 AM,47.7,10.0,22,30.16,10.0,SSW,12.7,-,N/A,,Clear,210,2014-03-14 15:15:00
11:35 AM,49.6,11.7,22,30.16,10.0,SSW,9.2,-,N/A,,Clear,210,2014-03-14 15:35:00
11:55 AM,50.5,13.1,22,30.15,10.0,SW,11.5,18.4,N/A,,Clear,220,2014-03-14 15:55:00
12:15 PM,52.2,14.7,23,30.14,10.0,SSW,15.0,-,N/A,,Clear,210,2014-03-14 16:15:00
12:35 PM,53.1,15.3,22,30.13,10.0,South,13.8,21.9,N/A,,Clear,190,2014-03-14 16:35:00
12:55 PM,55.2,17.1,22,30.12,10.0,SSW,15.0,24.2,N/A,,Clear,210,2014-03-14 16:55:00
1:15 PM,57.2,18.3,22,30.11,10.0,SW,17.3,23.0,N/A,,Clear,220,2014-03-14 17:15:00
1:35 PM,57.0,17.8,22,30.10,10.0,SSW,19.6,27.6,N/A,,Clear,210,2014-03-14 17:35:00
1:55 PM,57.7,18.5,22,30.08,10.0,SW,19.6,29.9,N/A,,Clear,230,2014-03-14 17:55:00
2:15 PM,58.1,19.2,22,30.07,10.0,SW,17.3,26.5,N/A,,Clear,220,2014-03-14 18:15:00
2:35 PM,56.8,18.9,23,30.06,10.0,SW,18.4,26.5,N/A,,Clear,230,2014-03-14 18:35:00
2:55 PM,58.3,18.7,21,30.05,10.0,SSW,20.7,27.6,N/A,,Clear,200,2014-03-14 18:55:00
3:15 PM,59.2,19.2,21,30.03,10.0,SSW,17.3,26.5,N/A,,Clear,210,2014-03-14 19:15:00
3:35 PM,58.6,18.3,21,30.03,10.0,SW,17.3,25.3,N/A,,Clear,220,2014-03-14 19:35:00
3:55 PM,59.2,17.4,20,30.02,10.0,SSW,19.6,24.2,N/A,,Clear,210,2014-03-14 19:55:00
4:15 PM,59.4,17.2,19,30.00,10.0,SSW,18.4,27.6,N/A,,Clear,200,2014-03-14 20:15:00
4:35 PM,57.6,17.2,21,29.98,10.0,SSW,18.4,25.3,N/A,,Clear,200,2014-03-14 20:35:00
4:55 PM,59.2,16.5,19,29.96,10.0,SSW,18.4,25.3,N/A,,Clear,210,2014-03-14 20:55:00
5:15 PM,58.8,16.0,19,29.97,10.0,SSW,17.3,-,N/A,,Clear,200,2014-03-14 21:15:00
5:35 PM,59.2,13.6,17,29.96,10.0,SW,18.4,25.3,N/A,,Clear,220,2014-03-14 21:35:00
5:55 PM,57.2,15.6,20,29.95,10.0,South,13.8,19.6,N/A,,Clear,190,2014-03-14 21:55:00
6:15 PM,56.5,15.3,20,29.96,10.0,SSW,12.7,20.7,N/A,,Clear,200,2014-03-14 22:15:00
6:35 PM,54.7,15.8,22,29.95,10.0,South,10.4,-,N/A,,Clear,190,2014-03-14 22:35:00
6:55 PM,53.8,16.3,23,29.95,10.0,South,11.5,17.3,N/A,,Clear,190,2014-03-14 22:55:00
7:15 PM,53.2,16.5,24,29.95,10.0,South,12.7,-,N/A,,Clear,190,2014-03-14 23:15:00
7:35 PM,52.9,16.0,23,29.95,10.0,SSW,12.7,19.6,N/A,,Clear,200,2014-03-14 23:35:00
7:55 PM,52.5,16.2,24,29.95,10.0,South,11.5,19.6,N/A,,Clear,190,2014-03-14 23:55:00
8:15 PM,51.8,16.2,24,29.94,10.0,South,10.4,18.4,N/A,,Clear,190,2014-03-15 00:15:00
8:35 PM,50.9,16.5,26,29.94,10.0,SSW,15.0,19.6,N/A,,Clear,200,2014-03-15 00:35:00
8:55 PM,49.5,16.7,27,29.95,10.0,SSW,10.4,-,N/A,,Clear,210,2014-03-15 00:55:00
9:15 PM,50.4,16.3,26,29.95,10.0,SSW,11.5,-,N/A,,Clear,200,2014-03-15 01:15:00
9:35 PM,50.2,16.5,26,29.95,10.0,SSW,11.5,-,N/A,,Clear,200,2014-03-15 01:35:00
9:55 PM,50.7,16.5,26,29.94,10.0,SSW,11.5,21.9,N/A,,Clear,210,2014-03-15 01:55:00
10:15 PM,49.8,16.7,27,29.94,10.0,SSW,9.2,-,N/A,,Clear,210,2014-03-15 02:15:00
10:35 PM,47.5,16.9,30,29.95,10.0,SW,9.2,-,N/A,,Clear,220,2014-03-15 02:35:00
10:55 PM,49.6,16.5,27,29.95,10.0,SSW,12.7,-,N/A,,Clear,210,2014-03-15 02:55:00
11:15 PM,49.6,16.5,27,29.94,10.0,SSW,12.7,18.4,N/A,,Clear,210,2014-03-15 03:15:00
11:35 PM,48.4,16.7,28,29.93,10.0,SW,12.7,-,N/A,,Clear,220,2014-03-15 03:35:00
11:55 PM,47.3,17.6,31,29.93,10.0,SW,10.4,-,N/A,,Clear,220,2014-03-15 03:55:00